Location: Feydey
(46.3431°N, 7.0106°E)
Time: 14:50:55
(UTC+00:00)

BREEZE-M DEB (TANK) - Pass Details

Date: 20 June 2021
Orbit: 334 x 16573 km, 49.3° (Epoch: 01 August)

Event Time Altitude Azimuth Distance (km) Brightness Sun altitude
Rises 21:34:14 0° 229° (SW) 9,245 8.4 -15.2°
Reaches altitude 10° 21:43:09 10° 227° (SW) 5,917 7.4 -15.9°
Maximum altitude 21:55:02 52° 156° (SSE) 1,179 3.5 -16.7°
Drops below altitude 10° 21:58:38 10° 78° (ENE) 1,860 4.9 -17.0°
Sets 22:00:02 0° 72° (ENE) 2,481 5.6 -17.1°
